Time_in_sec,gx,gy,gz
1323445729.95353484,-0.03323984,0.01776827,-0.99928945
1323445730.00066590,-0.03320571,0.01759267,-0.99929369
1323445730.05249214,-0.03266797,0.01737686,-0.99931519
1323445730.10056043,-0.03299762,0.01742609,-0.99930350
1323445730.14966750,-0.03306917,0.01746001,-0.99930054
1323445730.20097971,-0.03302152,0.01740585,-0.99930306
1323445730.25254846,-0.03225266,0.01708743,-0.99933367
1323445730.30222511,-0.03228366,0.01729955,-0.99932902
1323445730.35356736,-0.03225174,0.01743070,-0.99932777
1323445730.40056801,-0.03219742,0.01767078,-0.99932531
1323445730.44954228,-0.03214992,0.01800512,-0.99932087
1323445730.50055814,-0.03234378,0.01805211,-0.99931377
1323445730.54951954,-0.03147128,0.01776294,-0.99934680
1323445730.60053658,-0.03150851,0.01778345,-0.99934527
1323445730.65254831,-0.03162554,0.01766147,-0.99934373
1323445730.70148754,-0.03155609,0.01788476,-0.99934196
1323445730.74955845,-0.03180888,0.01792965,-0.99933314
1323445730.80051684,-0.03028632,0.01774450,-0.99938375
1323445730.84976935,-0.03033280,0.01764887,-0.99938403
1323445730.90052247,-0.03040622,0.01788059,-0.99937768
1323445730.95038867,-0.03058114,0.01796241,-0.99937087
1323445731.00155044,-0.02955610,0.01774240,-0.99940565
1323445731.04956245,-0.02970552,0.01787477,-0.99939886
1323445731.10234690,-0.02972168,0.01794064,-0.99939720
1323445731.15251470,-0.02981303,0.01782870,-0.99939648
1323445731.20079160,-0.02984717,0.01778070,-0.99939631
1323445731.25258088,-0.02977258,0.01813139,-0.99939224
1323445731.30057120,-0.02962474,0.01835538,-0.99939254
1323445731.35024548,-0.02977135,0.01846408,-0.99938618
1323445731.40052247,-0.02988039,0.01904440,-0.99937204
1323445731.45248699,-0.02990182,0.01910701,-0.99937020
1323445731.50223875,-0.02910659,0.01862229,-0.99940283
1323445731.55250144,-0.02932977,0.01910624,-0.99938717
1323445731.60064697,-0.02940794,0.01921475,-0.99938279
1323445731.65252090,-0.02950068,0.01926717,-0.99937905
1323445731.70062947,-0.02955362,0.01904384,-0.99938177
1323445731.75010824,-0.02920407,0.01891307,-0.99939453
1323445731.80159426,-0.02941854,0.01887147,-0.99938902
1323445731.85263443,-0.02927260,0.01870656,-0.99939641
1323445731.90511346,-0.02921744,0.01882357,-0.99939582
1323445731.95364428,-0.02941806,0.01879825,-0.99939042
1323445732.00178027,-0.02866875,0.01852566,-0.99941728
1323445732.05253816,-0.02874131,0.01872455,-0.99941149
1323445732.10053086,-0.02909856,0.01866410,-0.99940228
1323445732.14997530,-0.02920231,0.01876352,-0.99939740
1323445732.20049930,-0.02932490,0.01890852,-0.99939107
1323445732.25358319,-0.02932132,0.01936742,-0.99938239
1323445732.30048609,-0.02957200,0.01947565,-0.99937290
1323445732.35366201,-0.02976198,0.01976288,-0.99936162
1323445732.40165877,-0.02962685,0.01988174,-0.99936328
1323445732.45251012,-0.02985018,0.01979307,-0.99935839
1323445732.50164938,-0.03003084,0.02003929,-0.99934808
1323445732.54982638,-0.02972754,0.02037524,-0.99935035
1323445732.60155749,-0.02978921,0.02060427,-0.99934382
1323445732.65264153,-0.02988447,0.02086050,-0.99933566
1323445732.70182586,-0.02996729,0.02085401,-0.99933331
1323445732.75366354,-0.03014288,0.02082979,-0.99932854
1323445732.80166364,-0.02971117,0.02133698,-0.99933077
1323445732.85371757,-0.02983940,0.02166637,-0.99931986
1323445732.90142298,-0.02991122,0.02184258,-0.99931387
1323445732.94969153,-0.03021804,0.02182043,-0.99930513
1323445733.00153375,-0.03028681,0.02191353,-0.99930101
1323445733.04967237,-0.02984216,0.02148053,-0.99932379
1323445733.10167170,-0.03000797,0.02158126,-0.99931665
1323445733.15252328,-0.03000908,0.02171014,-0.99931383
1323445733.20153594,-0.03024101,0.02187001,-0.99930335
1323445733.25251842,-0.03047210,0.02195855,-0.99929439
1323445733.30164719,-0.02981745,0.02200539,-0.99931311
1323445733.34955955,-0.02999129,0.02205230,-0.99930687
1323445733.40051913,-0.03000978,0.02203814,-0.99930663
1323445733.45264959,-0.03000472,0.02214653,-0.99930438
1323445733.49953365,-0.03006555,0.02217764,-0.99930186
1323445733.54963279,-0.02950994,0.02129893,-0.99933754
1323445733.60157657,-0.02962917,0.02150735,-0.99932955
1323445733.65254807,-0.02999778,0.02157073,-0.99931719
1323445733.70054483,-0.02999471,0.02156998,-0.99931729
1323445733.75250363,-0.03031333,0.02177509,-0.99930323
1323445733.80049133,-0.03023520,0.02177118,-0.99930568
1323445733.85256290,-0.03008329,0.02212991,-0.99930239
1323445733.90243149,-0.03029647,0.02239991,-0.99928993
1323445733.95356536,-0.03063395,0.02262821,-0.99927450
1323445734.00153852,-0.03070514,0.02222032,-0.99928147
1323445734.05259728,-0.03074604,0.02241676,-0.99927582
1323445734.10163164,-0.03077270,0.02247499,-0.99927369
1323445734.15027428,-0.03091291,0.02235860,-0.99927198
1323445734.20153546,-0.03087112,0.02259307,-0.99926800
1323445734.25250340,-0.03108674,0.02265778,-0.99925985
1323445734.30049419,-0.03149612,0.02202063,-0.99926127
1323445734.35364985,-0.03140690,0.02231526,-0.99925754
1323445734.40062475,-0.03143687,0.02234846,-0.99925586
1323445734.45653796,-0.03137252,0.02272515,-0.99924938
1323445734.50152135,-0.03126271,0.02274532,-0.99925237
1323445734.55413127,-0.03065349,0.02249116,-0.99927699
1323445734.60226870,-0.03100183,0.02256612,-0.99926456
1323445734.65364075,-0.03112227,0.02277390,-0.99925610
1323445734.70212412,-0.03114656,0.02294370,-0.99925146
1323445734.75251055,-0.03116760,0.02301584,-0.99924914
1323445734.80164957,-0.03042918,0.02306568,-0.99927075
1323445734.85254717,-0.03059906,0.02325295,-0.99926123
1323445734.90062761,-0.03091765,0.02351949,-0.99924518
1323445734.94999552,-0.03089791,0.02362461,-0.99924331
1323445735.00056005,-0.03080151,0.02353041,-0.99924851
1323445735.05364990,-0.03091294,0.02513236,-0.99920606
1323445735.10198569,-0.03104505,0.02544581,-0.99919403
1323445735.15364981,-0.03115512,0.02553204,-0.99918841
1323445735.20164943,-0.03157515,0.02562409,-0.99917287
1323445735.25248122,-0.03164483,0.02580735,-0.99916594
1323445735.30165124,-0.02993430,0.02678970,-0.99919280
1323445735.34986234,-0.03014215,0.02686092,-0.99918464
1323445735.40049863,-0.03009182,0.02680477,-0.99918766
1323445735.45258117,-0.03009747,0.02713335,-0.99917862
1323445735.50051832,-0.02885281,0.02752112,-0.99920474
1323445735.55365086,-0.02881015,0.02759215,-0.99920401
1323445735.60164070,-0.02893732,0.02764214,-0.99919895
1323445735.65101767,-0.02910420,0.02769673,-0.99919259
1323445735.70054793,-0.02904602,0.02760643,-0.99919678
1323445735.75249839,-0.02929113,0.02771083,-0.99918674
1323445735.80052543,-0.02787730,0.02622917,-0.99926718
1323445735.85262847,-0.02794124,0.02639588,-0.99926100
1323445735.90127993,-0.02788207,0.02664294,-0.99925610
1323445735.95264506,-0.02774838,0.02682716,-0.99925489
1323445736.00165081,-0.02779729,0.02687454,-0.99925226
1323445736.05253315,-0.02797763,0.02583257,-0.99927470
1323445736.10163617,-0.02802621,0.02569511,-0.99927689
1323445736.15251803,-0.02812484,0.02592847,-0.99926809
1323445736.20052409,-0.02834560,0.02608262,-0.99925784
1323445736.24954295,-0.02864651,0.02620500,-0.99924605
1323445736.30052423,-0.02844426,0.02524351,-0.99927658
1323445736.34964633,-0.02883462,0.02520501,-0.99926637
1323445736.40153694,-0.02878185,0.02531719,-0.99926505
1323445736.45251036,-0.02858242,0.02538973,-0.99926894
1323445736.50050306,-0.02863234,0.02554549,-0.99926354
1323445736.55044031,-0.02865113,0.02501977,-0.99927630
1323445736.61251640,-0.02863142,0.02497582,-0.99927796
1323445736.64949656,-0.02875638,0.02500226,-0.99927371
1323445736.70542526,-0.02891048,0.02503853,-0.99926836
1323445736.74948573,-0.02907486,0.02504161,-0.99926351
1323445736.80150008,-0.02916511,0.02370482,-0.99929349
1323445736.85272527,-0.02921189,0.02376367,-0.99929073
1323445736.90049839,-0.02938179,0.02394770,-0.99928135
1323445736.95031118,-0.02931355,0.02411445,-0.99927935
1323445737.00151396,-0.02953657,0.02426223,-0.99926920
1323445737.05354595,-0.02906540,0.02352555,-0.99930063
1323445737.10328031,-0.02927506,0.02355568,-0.99929380
1323445737.15365863,-0.02918834,0.02369211,-0.99929311
1323445737.20063353,-0.02939262,0.02377499,-0.99928516
1323445737.25255775,-0.02967634,0.02411894,-0.99926853
1323445737.30132890,-0.02940454,0.02397479,-0.99928003
1323445737.35016775,-0.02944778,0.02410172,-0.99927571
1323445737.40048814,-0.02977990,0.02457992,-0.99925421
1323445737.45253205,-0.02975851,0.02446659,-0.99925763
1323445737.50216675,-0.02956643,0.02474684,-0.99925643
1323445737.55294156,-0.02948526,0.02343479,-0.99929046
1323445737.60153246,-0.02976272,0.02380672,-0.99927345
1323445737.65260959,-0.02982294,0.02395690,-0.99926806
1323445737.70055628,-0.02993490,0.02391093,-0.99926582
1323445737.75002527,-0.03022695,0.02394699,-0.99925616
1323445737.80154467,-0.02999303,0.02252093,-0.99929637
1323445737.85263038,-0.03008420,0.02263425,-0.99929106
1323445737.90200710,-0.03009552,0.02280521,-0.99928684
1323445737.95359111,-0.03006890,0.02278794,-0.99928803
1323445738.00164795,-0.03016356,0.02276270,-0.99928575
1323445738.05267501,-0.02929148,0.02078297,-0.99935483
1323445738.10063577,-0.02958657,0.02077353,-0.99934633
1323445738.14990377,-0.02969192,0.02097465,-0.99933901
1323445738.20152903,-0.02978010,0.02111054,-0.99933352
1323445738.25363207,-0.03020949,0.02141235,-0.99931421
1323445738.30048633,-0.02970138,0.02028670,-0.99935293
1323445738.35252404,-0.02984429,0.02052154,-0.99934388
1323445738.40165329,-0.02979953,0.02081167,-0.99933921
1323445738.45651507,-0.02993079,0.02100871,-0.99933117
1323445738.50062203,-0.03012741,0.02126787,-0.99931978
1323445738.55351710,-0.02914568,0.02072905,-0.99936021
1323445738.60049200,-0.02909948,0.02099953,-0.99935591
1323445738.65257740,-0.02948439,0.02092239,-0.99934625
1323445738.70177341,-0.02949138,0.02109810,-0.99934235
1323445738.75651145,-0.02969120,0.02107646,-0.99933689
1323445738.80063486,-0.02906444,0.02039589,-0.99936943
1323445738.85657191,-0.02915603,0.02040801,-0.99936652
1323445738.89264464,-0.02924869,0.02058876,-0.99936010
1323445738.94454646,-0.02945846,0.02096275,-0.99934617
1323445738.99353242,-0.02947238,0.02121113,-0.99934052
1323445739.04566765,-0.02977485,0.02126689,-0.99933036
1323445739.09360194,-0.02995283,0.02134222,-0.99932344
1323445739.14465213,-0.03005715,0.02129518,-0.99932131
1323445739.19256282,-0.02992528,0.02123492,-0.99932655
1323445739.24177957,-0.02988530,0.02135197,-0.99932525
1323445739.29251504,-0.02856475,0.02153037,-0.99936004
1323445739.34247041,-0.02841169,0.02164743,-0.99936188
1323445739.40053058,-0.02835682,0.02174404,-0.99936134
1323445739.44461060,-0.02842668,0.02207060,-0.99935220
1323445739.49443841,-0.02878635,0.02235379,-0.99933561
1323445739.54558158,-0.02798869,0.02184185,-0.99936958
1323445739.59257984,-0.02809979,0.02211370,-0.99936049
1323445739.64454627,-0.02841979,0.02217221,-0.99935014
1323445739.69272089,-0.02844669,0.02216392,-0.99934956
1323445739.74158430,-0.02830377,0.02243950,-0.99934747
1323445739.80049849,-0.02754739,0.02217668,-0.99937447
1323445739.84165311,-0.02759349,0.02231279,-0.99937017
1323445739.89352441,-0.02745162,0.02236667,-0.99937287
1323445739.94164491,-0.02728096,0.02266427,-0.99937084
1323445739.99355459,-0.02754046,0.02269455,-0.99936304
1323445740.04453468,-0.02609852,0.02172282,-0.99942333
1323445740.09255338,-0.02624365,0.02193868,-0.99941481
1323445740.14451909,-0.02628893,0.02199151,-0.99941246
1323445740.20049071,-0.02664495,0.02208225,-0.99940103
1323445740.24450374,-0.02663102,0.02234790,-0.99939550
1323445740.30048561,-0.02607010,0.02115040,-0.99943635
1323445740.34153819,-0.02610896,0.02133722,-0.99943136
1323445740.39370990,-0.02624372,0.02160288,-0.99942212
1323445740.44219828,-0.02647171,0.02182850,-0.99941121
1323445740.49252367,-0.02670076,0.02224529,-0.99939593
1323445740.54164314,-0.02721811,0.02030668,-0.99942324
1323445740.59251881,-0.02714217,0.02023237,-0.99942681
1323445740.65263104,-0.02721568,0.02019827,-0.99942550
1323445740.69402909,-0.02750225,0.02042831,-0.99941298
1323445740.74564123,-0.02749789,0.02060781,-0.99940942
1323445740.79363966,-0.02714634,0.02014626,-0.99942844
1323445740.84453607,-0.02729906,0.02043350,-0.99941845
1323445740.89263558,-0.02754642,0.02054231,-0.99940943
1323445740.94165301,-0.02770308,0.02070589,-0.99940172
1323445740.99253559,-0.02770511,0.02118339,-0.99939166
1323445741.05357552,-0.02718871,0.01955099,-0.99943911
1323445741.09388971,-0.02721209,0.01966855,-0.99943617
1323445741.14452124,-0.02732568,0.01991261,-0.99942823
1323445741.19365144,-0.02749154,0.01988640,-0.99942421
1323445741.24858618,-0.02587269,0.02093330,-0.99944605
1323445741.29263234,-0.02590014,0.02097635,-0.99944443
1323445741.34990859,-0.02610002,0.02111461,-0.99943632
1323445741.39251685,-0.02646211,0.02130553,-0.99942275
1323445741.44555664,-0.02666963,0.02135122,-0.99941626
1323445741.49349737,-0.02668823,0.02176874,-0.99940675
1323445741.54553819,-0.02574110,0.02264470,-0.99941213
1323445741.59251165,-0.02575392,0.02268880,-0.99941080
1323445741.64386344,-0.02598553,0.02279128,-0.99940248
1323445741.69308281,-0.02617828,0.02301363,-0.99939235
1323445741.74153805,-0.02634918,0.02331130,-0.99938096
1323445741.80050111,-0.02550576,0.02310574,-0.99940762
1323445741.84097886,-0.02548877,0.02345604,-0.99939989
1323445741.89361334,-0.02556076,0.02330756,-0.99940152
1323445741.94553638,-0.02549014,0.02350020,-0.99939882
1323445741.99251533,-0.02432291,0.02246531,-0.99945170
1323445742.04162121,-0.02431502,0.02235326,-0.99945441
1323445742.09349942,-0.02422951,0.02233138,-0.99945697
1323445742.15369558,-0.02414769,0.02233460,-0.99945888
1323445742.19251704,-0.02409465,0.02240943,-0.99945849
1323445742.24449682,-0.02435888,0.02272295,-0.99944500
1323445742.30049467,-0.02326924,0.02257089,-0.99947441
1323445742.34456205,-0.02318507,0.02283291,-0.99947042
1323445742.39256597,-0.02327132,0.02299128,-0.99946478
1323445742.44451690,-0.02328131,0.02287709,-0.99946717
1323445742.49381924,-0.02204529,0.02291022,-0.99949444
1323445742.54979825,-0.02210428,0.02307707,-0.99948929
1323445742.59250593,-0.02213892,0.02323429,-0.99948489
1323445742.64961386,-0.02205425,0.02327270,-0.99948586
1323445742.69428468,-0.02204123,0.02316417,-0.99948867
1323445742.74455118,-0.02077103,0.02295459,-0.99952071
1323445742.79255366,-0.02065530,0.02308324,-0.99952015
1323445742.84456921,-0.02069459,0.02300999,-0.99952102
1323445742.90166140,-0.02088960,0.02324627,-0.99951150
1323445742.94237304,-0.02113537,0.02312039,-0.99950925
1323445742.99653578,-0.02021640,0.02290584,-0.99953320
1323445743.05365157,-0.02031157,0.02308307,-0.99952719
1323445743.09419799,-0.02020993,0.02309065,-0.99952908
1323445743.14452410,-0.02020226,0.02331763,-0.99952396
1323445743.20057344,-0.02030930,0.02337738,-0.99952040
1323445743.24452353,-0.02043027,0.02356989,-0.99951341
1323445743.30053639,-0.02051220,0.02349110,-0.99951359
1323445743.35028172,-0.02057707,0.02364892,-0.99950854
1323445743.39269924,-0.02074591,0.02358700,-0.99950651
1323445743.45263720,-0.02087660,0.02380271,-0.99949867
1323445743.49418402,-0.02087308,0.02390777,-0.99949624
1323445743.54164124,-0.02073383,0.02394581,-0.99949823
1323445743.60082722,-0.02084963,0.02406794,-0.99949288
1323445743.64209437,-0.02082652,0.02414257,-0.99949157
1323445743.70062923,-0.02096205,0.02439351,-0.99948264
1323445743.75014520,-0.02081572,0.02466544,-0.99947903
1323445743.79253006,-0.02090861,0.02476906,-0.99947452
1323445743.85363817,-0.02104993,0.02494972,-0.99946706
1323445743.89403653,-0.02136563,0.02502193,-0.99945856
1323445743.94566202,-0.02143722,0.02503770,-0.99945663
1323445744.00064516,-0.02138392,0.02513342,-0.99945537
1323445744.04196191,-0.02144090,0.02503039,-0.99945674
1323445744.09251499,-0.02137307,0.02509713,-0.99945652
1323445744.14194870,-0.02149942,0.02514498,-0.99945260
1323445744.20052481,-0.02175998,0.02543150,-0.99943971
1323445744.25263429,-0.02171984,0.02562016,-0.99943577
1323445744.29391789,-0.02180444,0.02566910,-0.99943267
1323445744.35365057,-0.02179207,0.02582057,-0.99942904
1323445744.40055776,-0.02177371,0.02609675,-0.99942227
1323445744.44457173,-0.02186482,0.02607202,-0.99942092
1323445744.50072598,-0.02184836,0.02612535,-0.99941989
1323445744.54986167,-0.02212286,0.02626912,-0.99941008
1323445744.59252977,-0.02215431,0.02630264,-0.99940850
1323445744.65263534,-0.02227342,0.02631760,-0.99940546
1323445744.70196104,-0.02246356,0.02635888,-0.99940012
1323445744.74167657,-0.02269513,0.02626201,-0.99939744
1323445744.80056834,-0.02275461,0.02616107,-0.99939873
1323445744.85251951,-0.02288394,0.02630371,-0.99939204
1323445744.90056062,-0.02312988,0.02655536,-0.99937972
1323445744.94965601,-0.02323962,0.02654490,-0.99937745
1323445745.00049329,-0.02331027,0.02658552,-0.99937473
1323445745.05264115,-0.02345986,0.02654307,-0.99937235
1323445745.10370040,-0.02369510,0.02664405,-0.99936412
1323445745.14955473,-0.02381131,0.02677944,-0.99935774
1323445745.19364309,-0.02413262,0.02679559,-0.99934959
1323445745.25252390,-0.02405912,0.02680340,-0.99935116
1323445745.30109978,-0.02431194,0.02692279,-0.99934183
1323445745.34952807,-0.02456890,0.02718324,-0.99932849
1323445745.40052724,-0.02461783,0.02733920,-0.99932304
1323445745.45362806,-0.02466764,0.02747768,-0.99931801
1323445745.50149012,-0.02472432,0.02739652,-0.99931884
1323445745.54956293,-0.02482057,0.02756537,-0.99931181
1323445745.60052967,-0.02507372,0.02776312,-0.99930001
1323445745.65261698,-0.02520817,0.02794434,-0.99929158
1323445745.70054412,-0.02516379,0.02812069,-0.99928775
1323445745.75045419,-0.02538037,0.02804455,-0.99928441
1323445745.80048609,-0.02527069,0.02790899,-0.99929099
1323445745.85358667,-0.02541737,0.02788754,-0.99928787
1323445745.90239143,-0.02557842,0.02787749,-0.99928404
1323445745.94225955,-0.02579860,0.02786528,-0.99927872
1323445746.00152755,-0.02578716,0.02799714,-0.99927533
1323445746.05252051,-0.02588562,0.02803615,-0.99927169
1323445746.10163760,-0.02583316,0.02833688,-0.99926456
1323445746.15412092,-0.02599918,0.02841454,-0.99925805
1323445746.20051074,-0.02600733,0.02858582,-0.99925296
1323445746.25254202,-0.02608180,0.02862325,-0.99924994
1323445746.30048680,-0.02622705,0.02857463,-0.99924753
1323445746.35254812,-0.02647448,0.02888006,-0.99923223
1323445746.40061831,-0.02661831,0.02906150,-0.99922315
1323445746.45254326,-0.02672287,0.02891368,-0.99922464
1323445746.50051761,-0.02705263,0.02894249,-0.99921494
1323445746.55368853,-0.02713355,0.02902579,-0.99921033
1323445746.60050511,-0.02705771,0.02928037,-0.99920495
1323445746.65353823,-0.02707482,0.02917264,-0.99920764
1323445746.70217729,-0.02700001,0.02939308,-0.99920321
1323445746.75365376,-0.02654127,0.02375536,-0.99936542
1323445746.80125952,-0.02656257,0.02401019,-0.99935876
1323445746.85351324,-0.02662047,0.02410113,-0.99935503
1323445746.90116239,-0.02662070,0.02415020,-0.99935384
1323445746.95249009,-0.02683387,0.02448573,-0.99933998
1323445747.00155663,-0.02655134,0.02228024,-0.99939913
1323445747.04996395,-0.02655094,0.02245893,-0.99939514
1323445747.10182190,-0.02638766,0.02253512,-0.99939775
1323445747.15249896,-0.02638802,0.02265140,-0.99939511
1323445747.20051908,-0.02636863,0.02261981,-0.99939634
1323445747.25253963,-0.02604376,0.02255084,-0.99940641
1323445747.30164957,-0.02596942,0.02264860,-0.99940614
1323445747.34982538,-0.02602696,0.02277438,-0.99940178
1323445747.40154171,-0.02622665,0.02275485,-0.99939701
1323445747.45254493,-0.02627501,0.02299099,-0.99939033
1323445747.50180078,-0.02704068,0.02248198,-0.99938149
1323445747.55365372,-0.02716819,0.02271681,-0.99937272
1323445747.60064387,-0.02712172,0.02292540,-0.99936922
1323445747.65252519,-0.02708157,0.02295867,-0.99936955
1323445747.70064020,-0.02712211,0.02331447,-0.99936021
1323445747.75370550,-0.02776066,0.02273362,-0.99935606
1323445747.80050921,-0.02781436,0.02280763,-0.99935288
1323445747.85247588,-0.02816061,0.02284881,-0.99934224
